User: anonymous   Login
Location: Roanoke
(37.2710°N, 79.9420°W)
Time: 14:27:22
(UTC-05:00)
Language:

FENGYUN 3A - Orbit

View from above orbital plane
View from above orbital plane
View from above satellite
View from above satellite

Ground track
Ground track

The orbit data is extracted from the following two-line orbital elements,

1 32958U 08026A   14356.26183511  .00000201  00000-0  11514-3 0  6488
2 32958 098.5310 048.5185 0010311 034.6605 325.5245 14.19507974340523
Epoch (UTC): 22 December 2014 06:17:02
Eccentricity: 0.0010311
inclination: 98.5310°
perigee height: 819 km
apogee height: 834 km
right ascension of ascending node: 48.5185°
argument of perigee: 34.6605°
revolutions per day: 14.19507974
mean anomaly at epoch: 325.5245°
orbit number at epoch: 34052

The dashed part of the orbit path shows where the satellite is in the earth's shadow,  

DLR